Regional Weather Roundup
Issued by NWS Northern Indiana

Home | Current Version | Previous Version | Text Only | Print | Product List | Glossary Off
Versions: 1 2 3 4 5 6 7 8 9 10 11 12 13 14 15 16 17 18 19 20 21 22 23 24 25 26 27 28 29 30 31 32 33 34 35 36 37 38 39 40 41 42 43 44 45 46 47 48 49 50

000
ASUS43 KIWX 202000
RWRIWX

KIWX WEATHER ROUNDUP
NATIONAL WEATHER SERVICE NORTHERN INDIANA
300 PM EST FRI JAN 20 2017

NOTE: "FAIR" INDICATES FEW OR NO CLOUDS BELOW 12,000 FEET WITH NO
SIGNIFICANT WEATHER AND/OR OBSTRUCTIONS TO VISIBILITY.

* THESE STATIONS ARE NOT UNDER NWS QUALITY CONTROL. THEY ALSO MAY NOT
  REPORT WEATHER SUCH AS PRECIPITATION OR FOG.

INZ001>027-202100-
NORTHERN INDIANA

CITY           SKY/WX    TMP DP  RH WIND       PRES   REMARKS
GARY*          CLOUDY    45  45 100 CALM      29.62F FOG
SOUTH BEND     CLOUDY    41  40  96 SW6       29.65F FOG
GOSHEN         CLOUDY    43  40  89 SW8       29.65R FOG
FORT WAYNE     CLOUDY    50  46  86 W7        29.65S
PERU/GRISSOM   CLOUDY    50  50 100 SW13      29.64R

$$
INZ028>050-202100-
CENTRAL INDIANA

CITY           SKY/WX    TMP DP  RH WIND       PRES   REMARKS
LAFAYETTE      CLOUDY    49  46  90 S7        29.64S
KOKOMO*        CLOUDY    50  47  89 SW14      29.66S
MUNCIE*        CLOUDY    54  50  86 SW7       29.66S
INDIANAPOLIS   CLOUDY    54  48  80 SW10      29.66F

$$
MIZ043>046-050>051-056>058-064>065-071>073-077>080-202100-
SOUTHWEST LOWER MICHIGAN

CITY           SKY/WX    TMP DP  RH WIND       PRES   REMARKS
BATTLE CREEK   CLOUDY    39  38  96 SW7       29.66R FOG
BENTON HARBOR  CLOUDY    41  39  93 CALM      29.63F FOG
COLDWATER*     CLOUDY    40  40 100 W5        29.65S FOG
HILLSDALE*     FOG       37  37 100 SW6       29.64R VSB 1
HOLLAND        CLOUDY    37  35  92 SE8       29.66R
GRAND RAPIDS   CLOUDY    36  33  89 SE5       29.66R FOG
KALAMAZOO      FOG       39  36  89 SW7       29.66R VSB 3/4
STURGIS*       CLOUDY    40  39  99 CALM      29.63F FOG
THREE RIVERS*  FOG       39  39  99 CALM      29.65S VSB 1

$$
OHZ001>008-015>018-024>025-202100-
NORTHWEST OHIO

CITY           SKY/WX    TMP DP  RH WIND       PRES   REMARKS
DEFIANCE       CLOUDY    44  43  96 W3        29.67R
FINDLAY        CLOUDY    52  48  86 W10       29.66R FOG
TOLEDO EXPRESS CLOUDY    44  44 100 W10       29.66R
TOLEDO METCALF CLOUDY    46  45  96 W9        29.67R
LIMA           CLOUDY    54  51  90 W15       29.66R

$$
AND FOR LAKE MICHIGAN COASTAL AND OPEN LAKE BUOY OBSERVATIONS

STATION/POSITION TEMP    WIND        PRES    VSBY  WAVE
                 AIR SEA DIR/SP/G                  HT/PER
                 (F)     (DEG/KT/KT) (MB)    (MI)  (FT/S)
CALUMET HARBOR    41     200/  3/  4 1003.0F
MICHIGAN CITY     38     320/  1/  2   N/A
BURNS HARBOR      42     260/  2/  8 1004.4S

$$
&&



USA.gov is the U.S. government's official web portal to all federal, state and local government web resources and services.